Location: Unspecified
(41.1850°N, 73.2650°W)
Time: 02:39:57
(UTC+00:00)

Cosmos 2360 Rocket - Pass Details

Date: 14 December 2025
Orbit: 834 x 842 km, 71.0° (Epoch: 14 January)

Event Time Altitude Azimuth Distance (km) Brightness Sun altitude
Rises 22:58:31 0° 160° (SSE) 3,381 5.3 -17.0°
Reaches altitude 10° 23:01:38 10° 143° (SE) 2,451 4.4 -17.5°
Enters shadow 23:03:48 17° 122° (ESE) 2,011 3.8 -17.9°
